�v������,���r���O(���x),�����t���O,���r���O(���x),�����t���O,��1(���x),�����t���O,��1(���x),�����t���O,�O�C���x,�����t���O,�O�C���x,�����t���O,�������x,�����t���O,�C�ۑ�(���x),�����t���O,�C�ۑ�(���x),�����t���O
7/1/2004 0:00,26.8,0,71,0,28,0,69,0,25.1,0,65,0,22.4,0,24.9,0,75.8,0
7/1/2004 0:15,26.8,0,70,0,28,0,69,0,25.2,0,65,0,22.6,0,24.7,0,76.8,0
7/1/2004 0:30,26.8,0,70,0,28,0,68,0,25.2,0,65,0,22.7,0,24.5,0,77.8,0
7/1/2004 0:45,26.9,0,71,0,28.1,0,69,0,25.1,0,66,0,22.8,0,24.3,0,78.8,0
7/1/2004 1:00,27,0,71,0,28.1,0,69,0,25.1,0,65,0,22.9,0,24.1,0,79.8,0
7/1/2004 1:15,27,0,70,0,28.1,0,69,0,25.1,0,65,0,23,0,24,0,79.8,0
7/1/2004 1:30,27,0,70,0,28.2,0,69,0,25,0,67,0,23,0,24,0,79.8,0
7/1/2004 1:45,27,0,70,0,28.2,0,69,0,25.1,0,66,0,23.1,0,23.9,0,79.8,0
7/1/2004 2:00,27.1,0,69,0,28.3,0,69,0,25,0,67,0,23.2,0,23.9,0,79.8,0
7/1/2004 2:15,27.1,0,69,0,28.3,0,68,0,25.1,0,68,0,23.3,0,24.1,0,79.3,0
7/1/2004 2:30,27.2,0,69,0,28.3,0,68,0,25,0,68,0,23.4,0,24.2,0,78.8,0
7/1/2004 2:45,27.2,0,69,0,28.3,0,68,0,25,0,66,0,23.5,0,24.4,0,78.3,0
7/1/2004 3:00,27.1,0,69,0,28.3,0,68,0,25.1,0,65,0,23.5,0,24.6,0,77.8,0
7/1/2004 3:15,26.9,0,69,0,28.3,0,68,0,25.1,0,64,0,23.6,0,24.5,0,78.1,0
7/1/2004 3:30,26.9,0,68,0,28.3,0,67,0,24.8,0,64,0,23.7,0,24.3,0,78.3,0
7/1/2004 3:45,27,0,67,0,28.3,0,67,0,24.8,0,63,0,23.7,0,24.2,0,78.6,0
7/1/2004 4:00,27.1,0,67,0,28.3,0,67,0,24.7,0,63,0,23.8,0,24.1,0,78.8,0
7/1/2004 4:15,26.9,0,66,0,28.3,0,67,0,24.7,0,63,0,23.9,0,24.1,0,79.3,0
7/1/2004 4:30,27,0,66,0,28.3,0,66,0,24.8,0,64,0,24,0,24.1,0,79.8,0
7/1/2004 4:45,27,0,67,0,28.3,0,66,0,24.9,0,64,0,24.1,0,24.2,0,80.3,0
7/1/2004 5:00,27,0,67,0,28.3,0,66,0,24.9,0,64,0,24.2,0,24.2,0,80.8,0
7/1/2004 5:15,27,0,68,0,28.3,0,66,0,25,0,65,0,24.3,0,24.3,0,80.6,0
7/1/2004 5:30,27,0,68,0,28.3,0,66,0,25,0,66,0,24.3,0,24.5,0,80.3,0
7/1/2004 5:45,27.1,0,69,0,28.3,0,66,0,25.1,0,68,0,24.4,0,24.6,0,80.1,0
7/1/2004 6:00,27,0,69,0,28.3,0,66,0,25.2,0,67,0,24.5,0,24.8,0,79.8,0
7/1/2004 6:15,27,0,69,0,28.4,0,66,0,25.3,0,64,0,24.6,0,25,0,77.8,0
7/1/2004 6:30,27,0,68,0,28.4,0,66,0,25.4,0,58,0,24.7,0,25.1,0,75.8,0
7/1/2004 6:45,27,0,66,0,28.2,0,62,0,25.6,0,55,0,24.7,0,25.3,0,73.8,0
7/1/2004 7:00,27,0,65,0,27.9,0,61,0,25.8,0,54,0,24.8,0,25.5,0,71.8,0
7/1/2004 7:15,27.1,0,64,0,27.8,0,60,0,26.1,0,53,0,24.9,0,25.6,0,72.1,0
7/1/2004 7:30,27.3,0,63,0,27.8,0,61,0,26.1,0,55,0,25.1,0,25.6,0,72.3,0
7/1/2004 7:45,27.3,0,64,0,27.8,0,62,0,26.2,0,56,0,25.1,0,25.7,0,72.6,0
7/1/2004 8:00,27.3,0,65,0,27.8,0,63,0,26.2,0,58,0,25.2,0,25.8,0,72.8,0
7/1/2004 8:15,27.3,0,65,0,27.9,0,64,0,26.1,0,59,0,25.3,0,26.2,0,70.6,0
7/1/2004 8:30,27.4,0,66,0,27.9,0,63,0,26.9,0,55,0,25.3,0,26.5,0,68.3,0
7/1/2004 8:45,27.4,0,65,0,28,0,62,0,27.5,0,47,0,25.4,0,26.9,0,66.1,0
7/1/2004 9:00,27.5,0,64,0,28,0,61,0,27.6,0,45,0,25.5,0,27.3,0,63.8,0
7/1/2004 9:15,27.6,0,63,0,28.1,0,59,0,28.1,0,44,0,25.6,0,27.1,0,63.3,0
7/1/2004 9:30,27.8,0,61,0,28.2,0,59,0,27.6,0,44,0,23.8,0,26.9,0,62.8,0
7/1/2004 9:45,27.8,0,61,0,28.2,0,58,0,27.7,0,44,0,23.9,0,26.7,0,62.3,0
7/1/2004 10:00,27.9,0,60,0,28.3,0,58,0,27.5,0,45,0,23.9,0,26.5,0,61.8,0
7/1/2004 10:15,27.9,0,60,0,28.3,0,58,0,27.8,0,44,0,24,0,26.6,0,61,0
7/1/2004 10:30,27.9,0,60,0,28.3,0,58,0,27.5,0,43,0,24.1,0,26.6,0,60.3,0
7/1/2004 10:45,27.9,0,60,0,28.3,0,57,0,27.7,0,40,0,24.2,0,26.7,0,59.5,0
7/1/2004 11:00,28,0,58,0,28.4,0,55,0,27.8,0,40,0,24.3,0,26.8,0,58.8,0
7/1/2004 11:15,28.2,0,49,0,28.4,0,53,0,28.3,0,38,0,24.3,0,27.2,0,57.8,0
7/1/2004 11:30,28.3,0,48,0,28.5,0,53,0,28.4,0,37,0,23.2,0,27.5,0,56.8,0
7/1/2004 11:45,28.4,0,48,0,28.6,0,49,0,28.6,0,37,0,22.7,0,27.9,0,55.8,0
7/1/2004 12:00,28.8,0,49,0,28.8,0,49,0,29.3,0,35,0,21.9,0,28.3,0,54.8,0
7/1/2004 12:15,28.8,0,48,0,28.6,0,49,0,29,0,35,0,22,0,28.2,0,54.5,0
7/1/2004 12:30,28.8,0,48,0,28.8,0,49,0,29.7,0,35,0,22.2,0,28.1,0,54.3,0
7/1/2004 12:45,28.9,0,49,0,28.9,0,49,0,29.8,0,35,0,22.2,0,28,0,54,0
7/1/2004 13:00,29.2,0,48,0,29.1,0,49,0,30,0,34,0,22.3,0,27.9,0,53.8,0
7/1/2004 13:15,29.1,0,45,0,29.2,0,47,0,29.4,0,34,0,22.4,0,27.9,0,53.5,0
7/1/2004 13:30,28.9,0,46,0,29.1,0,46,0,29.4,0,34,0,22.7,0,27.8,0,53.3,0
7/1/2004 13:45,28.7,0,46,0,29,0,46,0,29.1,0,34,0,22.8,0,27.8,0,53,0
7/1/2004 14:00,28.5,0,46,0,28.9,0,46,0,29.2,0,34,0,22,0,27.8,0,52.8,0
7/1/2004 14:15,28.6,0,44,0,29,0,45,0,29.1,0,33,0,22.2,0,27.5,0,52.3,0
7/1/2004 14:30,28.7,0,44,0,29,0,44,0,29.2,0,32,0,22.4,0,27.2,0,51.8,0
7/1/2004 14:45,28.6,0,42,0,29,0,43,0,29.2,0,30,0,22.4,0,27,0,51.3,0
7/1/2004 15:00,28.4,0,43,0,28.8,0,43,0,29.4,0,31,0,22.5,0,26.7,0,50.8,0
7/1/2004 15:15,28.4,0,43,0,28.9,0,43,0,29.1,0,31,0,22.7,0,26.8,0,49,0
7/1/2004 15:30,28.1,0,42,0,28.7,0,42,0,29.2,0,30,0,22.8,0,26.9,0,47.3,0
7/1/2004 15:45,28.7,0,42,0,28.8,0,41,0,29.1,0,29,0,22.9,0,27.1,0,45.5,0
7/1/2004 16:00,29,0,41,0,28.6,0,38,0,29,0,28,0,23,0,27.2,0,43.8,0
7/1/2004 16:15,29,0,38,0,28.5,0,36,0,28.8,0,25,0,23.2,0,27,0,42.8,0
7/1/2004 16:30,29.1,0,36,0,28.7,0,33,0,28.7,0,22,0,23.3,0,26.7,0,41.8,0
7/1/2004 16:45,29.1,0,34,0,28.6,0,33,0,28.6,0,22,0,23.4,0,26.5,0,40.8,0
7/1/2004 17:00,29,0,32,0,28.5,0,31,0,28.4,0,21,0,23.5,0,26.3,0,39.8,0
7/1/2004 17:15,28.9,0,29,0,28.1,0,26,0,27.9,0,19,0,23.6,0,26.1,0,40,0
7/1/2004 17:30,27.7,0,26,0,28.2,0,29,0,28.2,0,20,0,23.7,0,25.8,0,40.3,0
7/1/2004 17:45,27.1,0,26,0,28,0,28,0,27.7,0,21,0,23.8,0,25.6,0,40.5,0
7/1/2004 18:00,26.9,0,27,0,28,0,29,0,27.5,0,21,0,23.9,0,25.4,0,40.8,0
7/1/2004 18:15,26.5,0,26,0,27.7,0,28,0,27,0,21,0,24,0,25.1,0,40.3,0
7/1/2004 18:30,26,0,29,0,27.7,0,30,0,26.7,0,23,0,24.1,0,24.8,0,39.8,0
7/1/2004 18:45,25.7,0,29,0,27.5,0,30,0,26.8,0,23,0,24.2,0,24.6,0,39.3,0
7/1/2004 19:00,25.4,0,29,0,27.4,0,31,0,26.4,0,23,0,24.3,0,24.3,0,38.8,0
7/1/2004 19:15,25,0,30,0,27.2,0,29,0,26.2,0,23,0,24.4,0,24.1,0,40,0
7/1/2004 19:30,24.8,0,30,0,27,0,30,0,25.8,0,24,0,24.5,0,23.9,0,41.3,0
7/1/2004 19:45,25.3,0,30,0,26.9,0,30,0,25.8,0,24,0,24.6,0,23.7,0,42.5,0
7/1/2004 20:00,25.5,0,32,0,27.3,0,32,0,25.6,0,25,0,24.7,0,23.5,0,43.8,0
7/1/2004 20:15,25.3,0,33,0,27,0,32,0,25.2,0,26,0,24.8,0,23.3,0,44.8,0
7/1/2004 20:30,25.1,0,33,0,26.8,0,33,0,25.4,0,26,0,23.4,0,23,0,45.8,0
7/1/2004 20:45,25.2,0,34,0,26.7,0,33,0,24.3,0,27,0,22.3,0,22.8,0,46.8,0
7/1/2004 21:00,25.1,0,35,0,26.6,0,34,0,24.4,0,28,0,22.4,0,22.6,0,47.8,0
7/1/2004 21:15,24.9,0,35,0,26.2,0,33,0,24.3,0,28,0,22.5,0,22.4,0,50.5,0
7/1/2004 21:30,24.8,0,37,0,26.1,0,35,0,23.6,0,30,0,22.7,0,22.2,0,53.3,0
7/1/2004 21:45,24.5,0,38,0,25.9,0,36,0,24.1,0,31,0,22.7,0,22,0,56,0
7/1/2004 22:00,24.3,0,40,0,25.8,0,37,0,23.7,0,32,0,22.8,0,21.8,0,58.8,0
7/1/2004 22:15,24.2,0,43,0,25.8,0,39,0,23.7,0,35,0,22.8,0,21.7,0,60.3,0
7/1/2004 22:30,24.1,0,46,0,25.7,0,42,0,23.6,0,37,0,22.9,0,21.6,0,61.8,0
7/1/2004 22:45,24.2,0,46,0,25.6,0,43,0,22.9,0,39,0,22.9,0,21.5,0,63.3,0
7/1/2004 23:00,24.2,0,46,0,25.7,0,43,0,23.7,0,37,0,23,0,21.4,0,64.8,0
7/1/2004 23:15,24.1,0,47,0,25.9,0,43,0,22.6,0,40,0,23,0,21.2,0,65.1,0
7/1/2004 23:30,24.2,0,48,0,25.9,0,44,0,22.4,0,42,0,23.1,0,21.1,0,65.3,0
7/1/2004 23:45,23.9,0,49,0,26.3,0,45,0,22.5,0,43,0,23.1,0,20.9,0,65.6,0
7/2/2004 0:00,23.9,0,50,0,26.4,0,45,0,22.7,0,42,0,23.2,0,20.8,0,65.8,0
7/2/2004 0:15,23.9,0,49,0,26.6,0,45,0,22,0,43,0,23.3,0,20.8,0,65.1,0
7/2/2004 0:30,23.8,0,49,0,26.6,0,45,0,22,0,42,0,23.3,0,20.8,0,64.3,0
7/2/2004 0:45,23.6,0,49,0,26.6,0,45,0,21.8,0,42,0,23.3,0,20.8,0,63.6,0
7/2/2004 1:00,23.6,0,48,0,26.6,0,46,0,22.1,0,40,0,23.4,0,20.8,0,62.8,0
7/2/2004 1:15,23.4,0,48,0,26.7,0,46,0,23,0,39,0,23.4,0,20.7,0,62.5,0
7/2/2004 1:30,23.5,0,48,0,26.7,0,46,0,22.7,0,38,0,23.5,0,20.6,0,62.3,0
7/2/2004 1:45,23.5,0,48,0,26.7,0,46,0,22.7,0,40,0,23.5,0,20.6,0,62,0
7/2/2004 2:00,23.4,0,49,0,26.7,0,47,0,23.1,0,39,0,23.6,0,20.5,0,61.8,0
7/2/2004 2:15,23.3,0,49,0,26.8,0,47,0,23,0,39,0,23.6,0,20.4,0,62,0
7/2/2004 2:30,23.3,0,49,0,26.8,0,47,0,22.5,0,40,0,23.6,0,20.3,0,62.3,0
7/2/2004 2:45,23.3,0,49,0,26.8,0,47,0,22,0,41,0,23.6,0,20.3,0,62.5,0
7/2/2004 3:00,23.2,0,49,0,26.8,0,47,0,21.9,0,41,0,23.7,0,20.2,0,62.8,0
7/2/2004 3:15,23.1,0,50,0,26.7,0,47,0,22,0,42,0,23.7,0,20.1,0,63,0
7/2/2004 3:30,23,0,51,0,26.7,0,47,0,22.7,0,40,0,23.7,0,20.1,0,63.3,0
7/2/2004 3:45,23,0,52,0,26.7,0,47,0,22.9,0,40,0,23.7,0,20,0,63.5,0
7/2/2004 4:00,23.1,0,52,0,26.7,0,47,0,22.8,0,41,0,23.7,0,20,0,63.8,0
7/2/2004 4:15,23.1,0,51,0,26.7,0,47,0,22.7,0,41,0,23.7,0,20,0,62.8,0
7/2/2004 4:30,23.2,0,50,0,26.7,0,47,0,22.1,0,41,0,23.7,0,20,0,61.8,0
7/2/2004 4:45,23.2,0,50,0,26.6,0,47,0,21.8,0,41,0,23.8,0,20.1,0,60.8,0
7/2/2004 5:00,23.2,0,50,0,26.6,0,47,0,21.8,0,41,0,23.8,0,20.1,0,59.8,0
7/2/2004 5:15,23,0,49,0,26.6,0,47,0,22.3,0,39,0,23.8,0,20.2,0,58.5,0
7/2/2004 5:30,23,0,48,0,26.6,0,47,0,22,0,39,0,23.8,0,20.3,0,57.3,0
7/2/2004 5:45,23.1,0,47,0,26.6,0,47,0,21.9,0,38,0,23.9,0,20.4,0,56,0
7/2/2004 6:00,23.1,0,46,0,26.6,0,47,0,22.1,0,38,0,23.2,0,20.5,0,54.8,0
7/2/2004 6:15,23,0,43,0,26.6,0,46,0,21.9,0,35,0,23.2,0,20.7,0,53.8,0
7/2/2004 6:30,23.1,0,43,0,26.6,0,46,0,22.6,0,35,0,23.2,0,21,0,52.8,0
7/2/2004 6:45,23.4,0,43,0,26.4,0,42,0,22.6,0,35,0,23.2,0,21.2,0,51.8,0
7/2/2004 7:00,23.7,0,43,0,26,0,39,0,22.5,0,34,0,23.3,0,21.5,0,50.8,0
7/2/2004 7:15,23.8,0,43,0,25.8,0,38,0,22.6,0,33,0,23.3,0,21.9,0,50.8,0
7/2/2004 7:30,24,0,42,0,25.8,0,39,0,23.5,0,32,0,23.4,0,22.2,0,50.8,0
7/2/2004 7:45,24.1,0,41,0,25.8,0,39,0,23.7,0,32,0,23.4,0,22.6,0,50.8,0
7/2/2004 8:00,24.3,0,42,0,26,0,38,0,23.3,0,31,0,23.4,0,23,0,50.8,0
7/2/2004 8:15,24.3,0,42,0,26,0,37,0,23.3,0,32,0,23.5,0,23.3,0,49.8,0
7/2/2004 8:30,24.5,0,42,0,26.1,0,37,0,24.4,0,31,0,23.6,0,23.5,0,48.8,0
7/2/2004 8:45,24.7,0,42,0,26.2,0,37,0,23.8,0,32,0,22.8,0,23.8,0,47.8,0
7/2/2004 9:00,24.8,0,42,0,26.3,0,36,0,24.6,0,31,0,22.7,0,24.1,0,46.8,0
7/2/2004 9:15,24.8,0,41,0,26.3,0,36,0,24.5,0,31,0,22.7,0,24.2,0,47.8,0
7/2/2004 9:30,25,0,41,0,26.6,0,36,0,25.3,0,30,0,22.7,0,24.4,0,48.8,0
7/2/2004 9:45,25.2,0,41,0,26.6,0,36,0,25.6,0,29,0,22.3,0,24.5,0,49.8,0
7/2/2004 10:00,25.3,0,41,0,26.7,0,36,0,25.9,0,29,0,22.3,0,24.7,0,50.8,0
7/2/2004 10:15,25.4,0,41,0,26.8,0,36,0,26,0,29,0,22.4,0,24.8,0,51.8,0
7/2/2004 10:30,25.5,0,42,0,26.8,0,36,0,26.7,0,28,0,22.5,0,24.9,0,52.8,0
7/2/2004 10:45,25.6,0,42,0,27,0,36,0,27,0,27,0,22.7,0,25.1,0,53.8,0
7/2/2004 11:00,25.7,0,42,0,26.9,0,35,0,27.2,0,26,0,22.7,0,25.2,0,54.8,0
7/2/2004 11:15,25.8,0,42,0,27.1,0,35,0,27.5,0,25,0,22.8,0,25.3,0,52.8,0
7/2/2004 11:30,25.9,0,42,0,27.2,0,34,0,28.2,0,25,0,22.3,0,25.4,0,50.8,0
7/2/2004 11:45,26.2,0,41,0,27.4,0,35,0,28.3,0,25,0,22.5,0,25.6,0,48.8,0
7/2/2004 12:00,27.5,0,35,0,27.5,0,35,0,28.5,0,25,0,22.4,0,25.7,0,46.8,0
7/2/2004 12:15,27.4,0,34,0,27.6,0,35,0,28.6,0,25,0,22.5,0,25.7,0,46.8,0
7/2/2004 12:30,27.7,0,36,0,27.6,0,36,0,28.5,0,25,0,22.7,0,25.7,0,46.8,0
7/2/2004 12:45,27.7,0,36,0,27.6,0,36,0,28.9,0,25,0,22.8,0,25.8,0,46.8,0
7/2/2004 13:00,28,0,37,0,27.8,0,37,0,29.3,0,25,0,22.8,0,25.8,0,46.8,0
7/2/2004 13:15,28,0,36,0,27.9,0,37,0,29.2,0,25,0,22.9,0,25.9,0,47.3,0
7/2/2004 13:30,28,0,37,0,27.9,0,37,0,29,0,25,0,23,0,25.9,0,47.8,0
7/2/2004 13:45,28,0,37,0,28,0,38,0,29.1,0,25,0,23,0,26,0,48.3,0
7/2/2004 14:00,27.9,0,37,0,27.9,0,37,0,29.2,0,25,0,22.3,0,26.1,0,48.8,0
7/2/2004 14:15,28.1,0,37,0,28.1,0,38,0,29.1,0,26,0,22.5,0,26.1,0,48.5,0
7/2/2004 14:30,28.2,0,38,0,28.1,0,38,0,29.2,0,26,0,22.5,0,26.1,0,48.3,0
7/2/2004 14:45,28.1,0,38,0,28.1,0,38,0,29.3,0,26,0,22.7,0,26.2,0,48,0
7/2/2004 15:00,28.2,0,37,0,28.2,0,37,0,29,0,25,0,22.7,0,26.2,0,47.8,0
7/2/2004 15:15,28.2,0,37,0,28.2,0,37,0,28.9,0,25,0,22.3,0,26.3,0,46.3,0
7/2/2004 15:30,28.5,0,36,0,28.2,0,37,0,28.6,0,26,0,22.4,0,26.3,0,44.8,0
7/2/2004 15:45,28.5,0,35,0,28.2,0,36,0,29.1,0,25,0,22.4,0,26.4,0,43.3,0
7/2/2004 16:00,28.5,0,33,0,28.2,0,35,0,28.7,0,23,0,22.5,0,26.5,0,41.8,0
7/2/2004 16:15,28.5,0,33,0,28.3,0,33,0,28.9,0,23,0,22.7,0,26.4,0,43.3,0
7/2/2004 16:30,28.4,0,31,0,28.1,0,32,0,28.5,0,22,0,22.8,0,26.3,0,44.8,0
7/2/2004 16:45,28.4,0,32,0,28.2,0,31,0,28.3,0,21,0,22.3,0,26.2,0,46.3,0
7/2/2004 17:00,28.3,0,31,0,28.1,0,31,0,28.2,0,22,0,22.4,0,26.1,0,47.8,0
7/2/2004 17:15,28.3,0,31,0,28.2,0,32,0,27.7,0,23,0,22,0,25.8,0,49,0
7/2/2004 17:30,28.4,0,32,0,28.2,0,33,0,27.5,0,26,0,22.1,0,25.5,0,50.3,0
7/2/2004 17:45,28.2,0,33,0,28.2,0,34,0,27.2,0,27,0,22.2,0,25.2,0,51.5,0
7/2/2004 18:00,28.1,0,35,0,28.1,0,36,0,26.9,0,29,0,22,0,24.9,0,52.8,0
7/2/2004 18:15,27.7,0,38,0,28.1,0,37,0,26.8,0,30,0,21.9,0,24.4,0,53.8,0
7/2/2004 18:30,27.3,0,41,0,27.9,0,39,0,26.6,0,31,0,22,0,23.9,0,54.8,0
7/2/2004 18:45,26.8,0,42,0,27.8,0,40,0,25.8,0,32,0,22.1,0,23.5,0,55.8,0
7/2/2004 19:00,26.4,0,41,0,27.8,0,40,0,25.6,0,32,0,22.3,0,23,0,56.8,0
7/2/2004 19:15,25.2,0,42,0,27.6,0,39,0,25.3,0,31,0,22.4,0,22.8,0,56.5,0
7/2/2004 19:30,24.9,0,41,0,27.4,0,38,0,24.8,0,30,0,22.5,0,22.6,0,56.3,0
7/2/2004 19:45,25.7,0,38,0,27.3,0,37,0,24.8,0,30,0,22.5,0,22.4,0,56,0
7/2/2004 20:00,25.3,0,36,0,27.1,0,36,0,24.1,0,29,0,22.7,0,22.2,0,55.8,0
7/2/2004 20:15,25.2,0,36,0,26.9,0,35,0,24.1,0,28,0,22.3,0,22,0,55,0
7/2/2004 20:30,25.2,0,35,0,26.4,0,34,0,23.9,0,28,0,22.3,0,21.8,0,54.3,0
7/2/2004 20:45,24.9,0,35,0,26.4,0,34,0,23.7,0,29,0,22.5,0,21.7,0,53.5,0
7/2/2004 21:00,24.6,0,37,0,26.3,0,35,0,23.9,0,30,0,22.5,0,21.5,0,52.8,0
7/2/2004 21:15,24.8,0,38,0,26.3,0,36,0,23.8,0,30,0,22.5,0,21.3,0,53.5,0
7/2/2004 21:30,25.2,0,37,0,26.2,0,36,0,23.6,0,30,0,22.8,0,21.2,0,54.3,0
7/2/2004 21:45,25.2,0,37,0,26.2,0,36,0,23.4,0,31,0,22.8,0,21,0,55,0
7/2/2004 22:00,25.2,0,36,0,25.9,0,36,0,23.4,0,30,0,22.8,0,20.9,0,55.8,0
7/2/2004 22:15,25.1,0,37,0,26,0,36,0,23.3,0,31,0,22.9,0,20.9,0,55,0
7/2/2004 22:30,25.1,0,37,0,26.1,0,36,0,23.4,0,30,0,22.9,0,21,0,54.3,0
7/2/2004 22:45,25.1,0,37,0,26.1,0,36,0,23,0,31,0,23,0,21,0,53.5,0
7/2/2004 23:00,25.1,0,37,0,26.2,0,38,0,22.4,0,34,0,23,0,21.1,0,52.8,0
7/2/2004 23:15,25,0,38,0,26.4,0,39,0,23,0,33,0,23.1,0,21,0,53.8,0
7/2/2004 23:30,25,0,38,0,26.6,0,39,0,23,0,33,0,22.4,0,20.8,0,54.8,0
7/2/2004 23:45,25,0,39,0,26.7,0,40,0,22.5,0,33,0,22.5,0,20.7,0,55.8,0
7/3/2004 0:00,25,0,38,0,26.7,0,40,0,23.1,0,30,0,22.5,0,20.6,0,56.8,0
7/3/2004 0:15,24.9,0,38,0,26.8,0,40,0,23.3,0,30,0,22.6,0,20.5,0,56.8,0
7/3/2004 0:30,24.9,0,39,0,26.8,0,40,0,23.1,0,31,0,22.7,0,20.3,0,56.8,0
7/3/2004 0:45,24.9,0,39,0,26.8,0,41,0,22.7,0,32,0,22.7,0,20.2,0,56.8,0
7/3/2004 1:00,24.8,0,39,0,26.9,0,41,0,22.6,0,32,0,22.8,0,20.1,0,56.8,0
7/3/2004 1:15,24.8,0,39,0,26.9,0,41,0,22.5,0,33,0,22.8,0,20.1,0,57.8,0
7/3/2004 1:30,24.7,0,39,0,26.9,0,41,0,22.6,0,33,0,22.9,0,20,0,58.8,0
7/3/2004 1:45,24.6,0,39,0,26.9,0,41,0,22.5,0,33,0,22.9,0,20,0,59.8,0
7/3/2004 2:00,24.6,0,39,0,26.9,0,41,0,22.2,0,34,0,22.9,0,20,0,60.8,0
7/3/2004 2:15,24.6,0,40,0,26.9,0,41,0,22.4,0,33,0,23,0,19.9,0,61.3,0
7/3/2004 2:30,24.5,0,40,0,26.9,0,41,0,22.4,0,33,0,23,0,19.8,0,61.8,0
7/3/2004 2:45,24.5,0,40,0,26.9,0,41,0,21.8,0,34,0,23,0,19.7,0,62.3,0
7/3/2004 3:00,24.4,0,40,0,26.8,0,41,0,22.1,0,34,0,23.1,0,19.6,0,62.8,0
7/3/2004 3:15,24.3,0,41,0,26.8,0,41,0,20.5,0,39,0,23.1,0,19.5,0,63.8,0
7/3/2004 3:30,24.2,0,41,0,26.7,0,41,0,21.2,0,37,0,23.1,0,19.4,0,64.8,0
7/3/2004 3:45,24.2,0,41,0,26.7,0,41,0,20.3,0,41,0,23.2,0,19.4,0,65.8,0
7/3/2004 4:00,24.1,0,42,0,26.7,0,41,0,21.5,0,38,0,23.1,0,19.3,0,66.8,0
7/3/2004 4:15,24.1,0,42,0,26.7,0,41,0,20.3,0,41,0,23.2,0,19.3,0,66.3,0
7/3/2004 4:30,24.1,0,43,0,26.7,0,41,0,21.2,0,42,0,23.2,0,19.3,0,65.8,0
7/3/2004 4:45,24,0,43,0,26.6,0,41,0,20.9,0,42,0,23.2,0,19.3,0,65.3,0
7/3/2004 5:00,24,0,44,0,26.6,0,42,0,21.8,0,40,0,23.3,0,19.3,0,64.8,0
7/3/2004 5:15,23.9,0,44,0,26.6,0,41,0,21.5,0,40,0,23.3,0,19.4,0,65.6,0
7/3/2004 5:30,23.9,0,44,0,26.6,0,42,0,22.1,0,38,0,23.4,0,19.5,0,66.3,0
7/3/2004 5:45,23.8,0,45,0,26.6,0,42,0,21.7,0,40,0,23.4,0,19.6,0,67.1,0
7/3/2004 6:00,23.8,0,45,0,26.6,0,42,0,21.9,0,40,0,23.4,0,19.7,0,67.8,0
7/3/2004 6:15,23.9,0,45,0,26.6,0,42,0,22.3,0,38,0,23.5,0,19.9,0,67.3,0
7/3/2004 6:30,23.9,0,45,0,26.7,0,42,0,22.2,0,38,0,23.5,0,20,0,66.8,0
7/3/2004 6:45,24,0,45,0,26.8,0,43,0,22.6,0,37,0,23.5,0,20.2,0,66.3,0
7/3/2004 7:00,24.1,0,45,0,26.9,0,43,0,22.6,0,38,0,23.6,0,20.4,0,65.8,0
7/3/2004 7:15,24.2,0,45,0,27.2,0,44,0,22.4,0,38,0,23.6,0,20.7,0,65.1,0
7/3/2004 7:30,24.3,0,45,0,27.1,0,44,0,22.6,0,37,0,23.6,0,21,0,64.3,0
7/3/2004 7:45,24.5,0,44,0,27.2,0,43,0,23.2,0,37,0,23.7,0,21.3,0,63.6,0
7/3/2004 8:00,24.6,0,44,0,27.2,0,43,0,23.2,0,36,0,23.7,0,21.6,0,62.8,0
7/3/2004 8:15,24.6,0,44,0,27.3,0,42,0,23.2,0,37,0,23.7,0,21.7,0,62.5,0
7/3/2004 8:30,24.8,0,44,0,27.3,0,42,0,24.2,0,35,0,23.7,0,21.8,0,62.3,0
7/3/2004 8:45,24.9,0,45,0,27.4,0,42,0,24.2,0,35,0,23.7,0,21.9,0,62,0
7/3/2004 9:00,24.8,0,45,0,27.4,0,41,0,24,0,36,0,23.8,0,22,0,61.8,0
7/3/2004 9:15,25.1,0,45,0,27.5,0,41,0,25,0,35,0,23.8,0,22.2,0,60.3,0
7/3/2004 9:30,25.4,0,44,0,27.5,0,41,0,25.4,0,33,0,23.9,0,22.4,0,58.8,0
7/3/2004 9:45,25.4,0,44,0,27.6,0,41,0,25.5,0,33,0,23.9,0,22.6,0,57.3,0
7/3/2004 10:00,25.9,0,44,0,27.6,0,41,0,25.8,0,33,0,23.9,0,22.8,0,55.8,0
7/3/2004 10:15,26.4,0,44,0,27.7,0,41,0,26.2,0,34,0,24,0,23.5,0,55.5,0
7/3/2004 10:30,26.3,0,45,0,27.7,0,42,0,26.6,0,34,0,24,0,24.2,0,55.3,0
7/3/2004 10:45,26.5,0,44,0,27.8,0,42,0,26.5,0,33,0,24.1,0,25,0,55,0
7/3/2004 11:00,26.6,0,44,0,27.9,0,41,0,26.9,0,33,0,24.1,0,25.7,0,54.8,0
7/3/2004 11:15,26.7,0,44,0,27.9,0,41,0,27,0,32,0,24.2,0,25.8,0,52.8,0
7/3/2004 11:30,26.7,0,44,0,28,0,41,0,27.6,0,31,0,24.2,0,25.9,0,50.8,0
7/3/2004 11:45,26.8,0,45,0,28,0,41,0,27.8,0,30,0,24.3,0,26,0,48.8,0
7/3/2004 12:00,26.9,0,44,0,28.1,0,40,0,28.2,0,29,0,24.3,0,26.1,0,46.8,0
7/3/2004 12:15,27,0,44,0,28.2,0,41,0,28.1,0,29,0,22.8,0,26.4,0,47.5,0
7/3/2004 12:30,27.1,0,44,0,28.3,0,40,0,28.5,0,29,0,22.2,0,26.6,0,48.3,0
7/3/2004 12:45,27.2,0,44,0,28.3,0,40,0,29.8,0,27,0,22.2,0,26.9,0,49,0
7/3/2004 13:00,27.2,0,44,0,28.4,0,40,0,29.7,0,27,0,22.3,0,27.2,0,49.8,0
7/3/2004 13:15,27.4,0,45,0,28.5,0,40,0,30.1,0,26,0,22.4,0,27.5,0,49.3,0
7/3/2004 13:30,27.6,0,46,0,28.6,0,40,0,30.1,0,26,0,22.5,0,27.8,0,48.8,0
7/3/2004 13:45,27.7,0,46,0,28.7,0,40,0,30.1,0,26,0,22.5,0,28.2,0,48.3,0
7/3/2004 14:00,27.8,0,45,0,28.6,0,41,0,29.6,0,28,0,22.7,0,28.5,0,47.8,0
7/3/2004 14:15,27.9,0,44,0,28.6,0,40,0,29.4,0,28,0,22.8,0,28.3,0,47.8,0
7/3/2004 14:30,27.9,0,43,0,28.6,0,40,0,29.4,0,28,0,22.9,0,28.2,0,47.8,0
7/3/2004 14:45,27.9,0,44,0,28.6,0,42,0,29.4,0,28,0,22.9,0,28,0,47.8,0
7/3/2004 15:00,28,0,44,0,28.8,0,40,0,29.8,0,28,0,23,0,27.9,0,47.8,0
7/3/2004 15:15,28.1,0,44,0,28.9,0,41,0,30.3,0,28,0,23.1,0,27.8,0,49.8,0
7/3/2004 15:30,28.4,0,44,0,28.8,0,43,0,29.7,0,30,0,22.4,0,27.7,0,51.8,0
7/3/2004 15:45,28.6,0,44,0,28.9,0,43,0,30,0,31,0,22.3,0,27.7,0,53.8,0
7/3/2004 16:00,28.8,0,46,0,29,0,45,0,29.8,0,32,0,22.5,0,27.6,0,55.8,0
7/3/2004 16:15,28.7,0,45,0,28.8,0,43,0,29.3,0,31,0,21.9,0,27.1,0,56,0
7/3/2004 16:30,28.6,0,43,0,28.7,0,42,0,29.2,0,31,0,21.9,0,26.6,0,56.3,0
7/3/2004 16:45,28.6,0,43,0,28.8,0,43,0,29,0,32,0,22,0,26.1,0,56.5,0
7/3/2004 17:00,28.7,0,46,0,29,0,44,0,28.6,0,35,0,22.1,0,25.6,0,56.8,0
7/3/2004 17:15,28.6,0,46,0,29,0,45,0,28.2,0,35,0,22.2,0,25.3,0,57.5,0
7/3/2004 17:30,28.3,0,46,0,28.7,0,45,0,27.8,0,36,0,22.4,0,25.1,0,58.3,0
7/3/2004 17:45,28.3,0,46,0,28.8,0,45,0,27,0,37,0,22.4,0,24.8,0,59,0
7/3/2004 18:00,28.2,0,46,0,28.7,0,45,0,26.5,0,38,0,22.5,0,24.6,0,59.8,0
7/3/2004 18:15,27.9,0,48,0,28.6,0,45,0,26.4,0,40,0,22.7,0,24.3,0,60,0
7/3/2004 18:30,26.6,0,51,0,28.5,0,46,0,26.2,0,40,0,22.8,0,24,0,60.3,0
7/3/2004 18:45,26.3,0,52,0,28.4,0,46,0,26.1,0,40,0,22.9,0,23.8,0,60.5,0
7/3/2004 19:00,25.9,0,52,0,28.2,0,46,0,25.9,0,40,0,23,0,23.5,0,60.8,0
7/3/2004 19:15,25.5,0,53,0,28.1,0,46,0,26,0,39,0,23.1,0,23.4,0,59,0
7/3/2004 19:30,25.7,0,52,0,28,0,45,0,25.6,0,40,0,23.2,0,23.2,0,57.3,0
7/3/2004 19:45,25.3,0,48,0,27.8,0,43,0,25.6,0,36,0,22.8,0,23.1,0,55.5,0
7/3/2004 20:00,25,0,50,0,27.8,0,43,0,25.4,0,37,0,22.8,0,23,0,53.8,0
7/3/2004 20:15,25,0,50,0,27.7,0,43,0,25.4,0,37,0,22.4,0,22.9,0,52.5,0
7/3/2004 20:30,24.8,0,51,0,27.6,0,44,0,25,0,38,0,22.4,0,22.8,0,51.3,0
7/3/2004 20:45,24.9,0,50,0,27.5,0,43,0,24.7,0,38,0,22.6,0,22.8,0,50,0
7/3/2004 21:00,24.6,0,48,0,27.5,0,43,0,25.1,0,36,0,22.7,0,22.7,0,48.8,0
7/3/2004 21:15,25.3,0,44,0,27.3,0,41,0,24.9,0,33,0,22.8,0,22.4,0,52.8,0
7/3/2004 21:30,25.3,0,37,0,27.3,0,36,0,25,0,28,0,22.9,0,22.1,0,56.8,0
7/3/2004 21:45,25.5,0,38,0,27.2,0,36,0,25.1,0,30,0,23,0,21.9,0,60.8,0
7/3/2004 22:00,25.5,0,40,0,27.1,0,37,0,24.8,0,32,0,23,0,21.6,0,64.8,0
7/3/2004 22:15,25.4,0,44,0,27,0,40,0,24.6,0,36,0,23.1,0,21.5,0,65.3,0
7/3/2004 22:30,25.2,0,47,0,27,0,42,0,24.8,0,37,0,23.2,0,21.3,0,65.8,0
7/3/2004 22:45,25.2,0,48,0,27,0,44,0,24.8,0,38,0,23.3,0,21.2,0,66.3,0
7/3/2004 23:00,25.5,0,48,0,27,0,44,0,24.4,0,39,0,23.4,0,21.1,0,66.8,0
7/3/2004 23:15,25.6,0,48,0,26.9,0,45,0,24.4,0,39,0,23.4,0,21,0,66.8,0
7/3/2004 23:30,25.6,0,48,0,26.9,0,46,0,24.2,0,40,0,23.5,0,20.9,0,66.8,0
7/3/2004 23:45,25.5,0,48,0,26.9,0,47,0,24.3,0,40,0,23.6,0,20.8,0,66.8,0
7/4/2004 0:00,25.6,0,48,0,27.1,0,47,0,24.2,0,40,0,23.6,0,20.7,0,66.8,0
7/4/2004 0:15,25.6,0,48,0,27.3,0,47,0,24.1,0,39,0,23.6,0,20.6,0,67.8,0
7/4/2004 0:30,25.5,0,48,0,27.3,0,47,0,23,0,40,0,23.7,0,20.4,0,68.8,0
7/4/2004 0:45,25.6,0,47,0,27.3,0,47,0,22.3,0,42,0,22.1,0,20.3,0,69.8,0
7/4/2004 1:00,25.5,0,46,0,27.4,0,47,0,22.9,0,43,0,22.2,0,20.2,0,70.8,0
7/4/2004 1:15,25.4,0,46,0,27.4,0,46,0,22.9,0,42,0,22.3,0,20.2,0,70.8,0
7/4/2004 1:30,25.3,0,47,0,27.4,0,46,0,22.5,0,44,0,22.4,0,20.3,0,70.8,0
7/4/2004 1:45,25.3,0,47,0,27.4,0,46,0,22.6,0,44,0,22.5,0,20.3,0,70.8,0
7/4/2004 2:00,25.2,0,48,0,27.4,0,46,0,22.1,0,45,0,22.5,0,20.4,0,70.8,0
7/4/2004 2:15,25.1,0,48,0,27.4,0,46,0,22.1,0,45,0,22.7,0,20.4,0,71.1,0
7/4/2004 2:30,25.1,0,48,0,27.4,0,46,0,21.8,0,46,0,22.7,0,20.3,0,71.3,0
7/4/2004 2:45,25,0,48,0,27.4,0,46,0,22.9,0,43,0,22.8,0,20.3,0,71.6,0
7/4/2004 3:00,25,0,48,0,27.4,0,46,0,21.9,0,46,0,22.8,0,20.3,0,71.8,0
7/4/2004 3:15,24.9,0,49,0,27.3,0,46,0,21.9,0,47,0,22.9,0,20.4,0,71.8,0
7/4/2004 3:30,24.9,0,48,0,27.3,0,46,0,22,0,45,0,22.9,0,20.5,0,71.8,0
7/4/2004 3:45,24.8,0,48,0,27.3,0,46,0,22.3,0,45,0,23,0,20.6,0,71.8,0
7/4/2004 4:00,24.7,0,47,0,27.3,0,46,0,21.9,0,44,0,23,0,20.7,0,71.8,0
7/4/2004 4:15,24.7,0,47,0,27.3,0,46,0,21.8,0,45,0,23.1,0,20.7,0,72.1,0
7/4/2004 4:30,24.6,0,48,0,27.3,0,45,0,21.8,0,46,0,23.2,0,20.8,0,72.3,0
7/4/2004 4:45,24.6,0,48,0,27.2,0,45,0,21.8,0,46,0,23.3,0,20.8,0,72.6,0
7/4/2004 5:00,24.5,0,48,0,27.2,0,46,0,21.8,0,47,0,23.3,0,20.9,0,72.8,0
7/4/2004 5:15,24.5,0,49,0,27.2,0,45,0,22.2,0,46,0,23.4,0,21,0,72.8,0
7/4/2004 5:30,24.5,0,49,0,27.2,0,46,0,22.8,0,45,0,23.5,0,21.1,0,72.8,0
7/4/2004 5:45,24.5,0,50,0,27.2,0,46,0,22.7,0,44,0,23.5,0,21.2,0,72.8,0
7/4/2004 6:00,24.5,0,49,0,27.2,0,46,0,22.5,0,44,0,23.6,0,21.3,0,72.8,0
7/4/2004 6:15,24.5,0,49,0,27.2,0,46,0,23.2,0,40,0,23.6,0,21.5,0,69.6,0
7/4/2004 6:30,24.5,0,48,0,27.2,0,46,0,23.3,0,40,0,23.6,0,21.7,0,66.3,0
7/4/2004 6:45,24.6,0,48,0,27.1,0,45,0,23.5,0,40,0,23.7,0,22,0,63.1,0
7/4/2004 7:00,24.6,0,48,0,27.2,0,45,0,23.5,0,40,0,23.7,0,22.2,0,59.8,0
7/4/2004 7:15,24.7,0,49,0,27.3,0,45,0,23.9,0,40,0,23.8,0,22.5,0,59,0
7/4/2004 7:30,24.4,0,50,0,27.1,0,44,0,24,0,39,0,23.9,0,22.9,0,58.3,0
7/4/2004 7:45,24.3,0,50,0,26.9,0,44,0,24.7,0,38,0,23.9,0,23.2,0,57.5,0
7/4/2004 8:00,24.7,0,50,0,27.1,0,44,0,24.9,0,37,0,23.9,0,23.6,0,56.8,0
7/4/2004 8:15,24.7,0,50,0,27.2,0,44,0,25.3,0,37,0,24,0,23.9,0,55.5,0
7/4/2004 8:30,25.2,0,49,0,27.2,0,45,0,25.5,0,37,0,24,0,24.3,0,54.3,0
7/4/2004 8:45,25.4,0,49,0,27.3,0,45,0,25.7,0,37,0,24.1,0,24.6,0,53,0
7/4/2004 9:00,25.6,0,50,0,27.4,0,45,0,25.6,0,37,0,24.1,0,25,0,51.8,0
7/4/2004 9:15,26.4,0,51,0,27.4,0,46,0,26.5,0,39,0,24.2,0,25.4,0,50.5,0
7/4/2004 9:30,26.3,0,51,0,27.6,0,47,0,26.5,0,39,0,24.3,0,25.8,0,49.3,0
7/4/2004 9:45,26.5,0,51,0,27.8,0,47,0,26.9,0,38,0,24.3,0,26.3,0,48,0
7/4/2004 10:00,26.9,0,51,0,27.9,0,48,0,27.3,0,38,0,24.4,0,26.7,0,46.8,0
7/4/2004 10:15,26.9,0,51,0,28,0,48,0,27.5,0,37,0,24.5,0,27,0,46.8,0
7/4/2004 10:30,27.2,0,51,0,28.1,0,48,0,27.9,0,37,0,24.5,0,27.2,0,46.8,0
7/4/2004 10:45,27.2,0,51,0,28.2,0,48,0,28,0,37,0,24.5,0,27.5,0,46.8,0
7/4/2004 11:00,27.3,0,51,0,28.3,0,48,0,28.7,0,35,0,24.6,0,27.8,0,46.8,0